TimeCST,TemperatureF,Dew PointF,Humidity,Sea Level PressureIn,VisibilityMPH,Wind Direction,Wind SpeedMPH,Gust SpeedMPH,PrecipitationIn,Events,Conditions,WindDirDegrees,DateUTC
12:15 AM,31.3,26.4,82,29.93,10.0,NW,15.0,20.7,N/A,,Clear,320,2011-11-29 06:15:00
12:35 AM,32.0,26.4,80,29.94,10.0,NNW,13.8,-,N/A,,Clear,340,2011-11-29 06:35:00
12:55 AM,32.0,26.6,80,29.94,10.0,North,11.5,-,N/A,,Clear,350,2011-11-29 06:55:00
1:15 AM,32.5,26.6,79,29.95,10.0,North,11.5,19.6,N/A,,Clear,350,2011-11-29 07:15:00
1:35 AM,32.4,26.6,79,29.95,10.0,NNW,12.7,-,N/A,,Clear,340,2011-11-29 07:35:00
1:55 AM,32.2,26.6,80,29.96,10.0,NNW,12.7,-,N/A,,Clear,340,2011-11-29 07:55:00
2:15 AM,32.0,26.6,80,29.96,10.0,North,12.7,-,N/A,,Clear,350,2011-11-29 08:15:00
2:35 AM,32.0,26.6,80,29.96,10.0,NNW,15.0,-,N/A,,Clear,340,2011-11-29 08:35:00
2:55 AM,32.0,26.6,80,29.96,10.0,NNW,15.0,20.7,N/A,,Clear,340,2011-11-29 08:55:00
3:15 AM,32.4,26.6,79,29.94,10.0,NNW,17.3,23.0,N/A,,Clear,340,2011-11-29 09:15:00
3:35 AM,32.2,26.6,80,29.95,10.0,NNW,17.3,23.0,N/A,,Clear,340,2011-11-29 09:35:00
3:55 AM,32.5,26.6,79,29.94,10.0,NNW,16.1,-,N/A,,Clear,340,2011-11-29 09:55:00
4:15 AM,32.4,26.6,79,29.94,10.0,NNW,17.3,21.9,N/A,,Clear,340,2011-11-29 10:15:00
4:35 AM,32.9,26.8,78,29.95,10.0,NNW,16.1,23.0,N/A,,Clear,340,2011-11-29 10:35:00
4:55 AM,34.0,27.0,75,29.95,10.0,North,19.6,24.2,N/A,,Clear,350,2011-11-29 10:55:00
5:15 AM,34.3,26.8,74,29.95,10.0,North,19.6,25.3,N/A,,Clear,350,2011-11-29 11:15:00
5:35 AM,34.7,27.1,74,29.96,10.0,North,18.4,25.3,N/A,,Clear,350,2011-11-29 11:35:00
5:55 AM,34.9,27.1,73,29.96,10.0,NNW,18.4,28.8,N/A,,Clear,340,2011-11-29 11:55:00
6:15 AM,34.9,27.5,74,29.95,10.0,North,19.6,29.9,N/A,,Clear,350,2011-11-29 12:15:00
6:35 AM,35.1,27.7,74,29.96,10.0,North,23.0,29.9,N/A,,Clear,350,2011-11-29 12:35:00
6:55 AM,35.4,28.2,75,29.96,10.0,NNW,21.9,28.8,N/A,,Clear,340,2011-11-29 12:55:00
7:15 AM,35.6,28.4,75,29.98,10.0,NNW,25.3,29.9,N/A,,Clear,340,2011-11-29 13:15:00
7:35 AM,36.0,28.4,74,29.98,10.0,NNW,25.3,31.1,N/A,,Clear,340,2011-11-29 13:35:00
7:55 AM,36.5,28.8,74,29.99,10.0,NNW,20.7,33.4,N/A,,Clear,340,2011-11-29 13:55:00
8:15 AM,36.7,29.3,75,29.99,10.0,NNW,20.7,26.5,N/A,,Scattered Clouds,340,2011-11-29 14:15:00
8:35 AM,36.7,29.7,76,30.00,10.0,NNW,20.7,26.5,N/A,,Overcast,340,2011-11-29 14:35:00
8:55 AM,37.0,30.0,76,30.01,10.0,NNW,17.3,-,N/A,,Overcast,340,2011-11-29 14:55:00
9:15 AM,37.4,30.2,75,30.02,10.0,NNW,18.4,-,N/A,,Overcast,340,2011-11-29 15:15:00
9:35 AM,37.8,29.8,73,30.03,10.0,NNW,18.4,-,N/A,,Overcast,340,2011-11-29 15:35:00
9:55 AM,38.5,29.8,71,30.03,10.0,NNW,20.7,-,N/A,,Overcast,340,2011-11-29 15:55:00
10:15 AM,39.2,28.4,65,30.04,10.0,NNW,20.7,26.5,N/A,,Scattered Clouds,330,2011-11-29 16:15:00
10:35 AM,39.0,28.8,67,30.03,10.0,NNW,19.6,-,N/A,,Clear,340,2011-11-29 16:35:00
10:55 AM,39.7,28.4,64,30.02,10.0,NNW,23.0,28.8,N/A,,Clear,340,2011-11-29 16:55:00
11:15 AM,40.1,27.7,61,30.03,10.0,NNW,20.7,31.1,N/A,,Clear,340,2011-11-29 17:15:00
11:35 AM,41.2,28.2,60,30.02,10.0,NNW,21.9,31.1,N/A,,Clear,330,2011-11-29 17:35:00
11:55 AM,42.1,27.3,56,30.02,10.0,NNW,21.9,29.9,N/A,,Clear,330,2011-11-29 17:55:00
12:15 PM,42.8,28.4,57,30.02,10.0,NNW,18.4,26.5,N/A,,Scattered Clouds,330,2011-11-29 18:15:00
12:35 PM,42.6,27.5,55,30.02,10.0,NNW,21.9,27.6,N/A,,Clear,330,2011-11-29 18:35:00
12:55 PM,42.1,25.7,52,30.02,10.0,NNW,21.9,26.5,N/A,,Clear,330,2011-11-29 18:55:00
1:15 PM,42.8,24.8,49,30.02,10.0,NW,19.6,28.8,N/A,,Clear,310,2011-11-29 19:15:00
1:35 PM,42.8,24.8,49,30.03,10.0,NNW,21.9,28.8,N/A,,Clear,330,2011-11-29 19:35:00
1:55 PM,43.2,22.8,45,30.03,10.0,NNW,16.1,26.5,N/A,,Clear,330,2011-11-29 19:55:00
2:15 PM,43.2,22.5,44,30.04,10.0,NNW,18.4,26.5,N/A,,Clear,330,2011-11-29 20:15:00
2:35 PM,42.8,21.9,44,30.04,10.0,NNW,19.6,24.2,N/A,,Clear,330,2011-11-29 20:35:00
2:55 PM,42.3,20.5,42,30.04,10.0,NNW,18.4,25.3,N/A,,Clear,330,2011-11-29 20:55:00
3:15 PM,41.9,19.8,41,30.05,10.0,NNW,20.7,-,N/A,,Clear,330,2011-11-29 21:15:00
3:35 PM,41.4,19.9,42,30.06,10.0,NW,15.0,24.2,N/A,,Clear,310,2011-11-29 21:35:00
3:55 PM,40.5,20.3,45,30.07,10.0,NW,12.7,23.0,N/A,,Clear,320,2011-11-29 21:55:00
4:15 PM,39.4,19.9,46,30.07,10.0,NNW,12.7,-,N/A,,Clear,330,2011-11-29 22:15:00
4:35 PM,38.1,18.9,46,30.07,10.0,NNW,10.4,18.4,N/A,,Clear,330,2011-11-29 22:35:00
4:55 PM,35.6,21.2,56,30.08,10.0,NW,8.1,-,N/A,,Clear,320,2011-11-29 22:55:00
5:15 PM,33.4,21.2,61,30.08,10.0,NW,5.8,-,N/A,,Clear,320,2011-11-29 23:15:00
5:35 PM,33.3,21.0,61,30.09,10.0,NW,6.9,-,N/A,,Clear,310,2011-11-29 23:35:00
5:55 PM,33.8,21.2,60,30.09,10.0,NW,8.1,-,N/A,,Clear,320,2011-11-29 23:55:00
6:15 PM,33.3,20.7,60,30.09,10.0,NW,8.1,-,N/A,,Clear,310,2011-11-30 00:15:00
6:35 PM,32.5,21.0,63,30.09,10.0,WNW,6.9,-,N/A,,Clear,300,2011-11-30 00:35:00
6:55 PM,32.0,21.9,66,30.10,10.0,WNW,6.9,-,N/A,,Clear,300,2011-11-30 00:55:00
7:15 PM,32.0,21.2,64,30.10,10.0,NW,8.1,-,N/A,,Clear,310,2011-11-30 01:15:00
7:35 PM,32.2,21.2,64,30.09,10.0,NW,8.1,-,N/A,,Clear,310,2011-11-30 01:35:00
7:55 PM,31.6,21.6,66,30.10,10.0,WNW,6.9,-,N/A,,Clear,300,2011-11-30 01:55:00
8:15 PM,30.7,21.7,69,30.10,10.0,WNW,6.9,-,N/A,,Clear,300,2011-11-30 02:15:00
8:35 PM,30.7,21.4,68,30.09,10.0,WNW,6.9,-,N/A,,Clear,300,2011-11-30 02:35:00
8:55 PM,30.2,21.2,69,30.09,10.0,WNW,9.2,-,N/A,,Clear,300,2011-11-30 02:55:00
9:15 PM,30.2,20.8,68,30.09,10.0,WNW,9.2,-,N/A,,Clear,300,2011-11-30 03:15:00
9:35 PM,29.7,20.7,69,30.08,10.0,WNW,6.9,-,N/A,,Clear,290,2011-11-30 03:35:00
9:55 PM,30.2,21.2,69,30.08,10.0,WNW,8.1,-,N/A,,Clear,290,2011-11-30 03:55:00
10:15 PM,28.9,20.3,70,30.08,10.0,WNW,9.2,-,N/A,,Clear,300,2011-11-30 04:15:00
10:35 PM,28.4,21.2,74,30.08,10.0,WNW,8.1,-,N/A,,Clear,300,2011-11-30 04:35:00
10:55 PM,28.4,20.3,72,30.08,10.0,WNW,8.1,-,N/A,,Clear,290,2011-11-30 04:55:00
11:15 PM,27.9,20.3,73,30.09,10.0,WNW,8.1,-,N/A,,Clear,290,2011-11-30 05:15:00
11:35 PM,28.2,20.1,72,30.09,10.0,WNW,8.1,-,N/A,,Clear,290,2011-11-30 05:35:00
11:55 PM,27.9,19.9,72,30.09,10.0,WNW,6.9,-,N/A,,Clear,290,2011-11-30 05:55:00